Temperature
19 20 20 20 17 14 17 18 18 18 18 19 19 19 17 16 17 18 21 20 20 19 18 17 16 16 15 15 14 13 12 12 11 10 10 10 10 9 9 8 8 8 8 8 8 8 8 9 9
19 20 20 19 15 15 16 17 17 17 19 19 20 19 19 19 20 20 21 20 20 19 18 17 16 16 15 14 14 13 13 12 11 11 10 10 10 9 9 9 9 9 9 9 9 9 9 9 9
19 19 20 15 15 15 18 18 17 18 19 19 19 19 19 20 20 21 21 20 20 19 18 17 16 16 15 14 14 13 13 12 12 11 11 10 10 9 9 9 9 9 9 9 9 9 9 9 10
19 19 19 15 17 16 17 18 18 18 19 19 19 19 19 20 21 21 21 20 20 19 18 17 16 15 15 14 13 13 13 12 12 11 11 10 10 9 9 9 9 9 9 9 9 9 9 10 10
19 19 16 15 17 17 16 17 18 17 18 18 18 18 19 21 21 21 20 20 20 19 18 17 16 15 14 13 13 12 12 12 11 11 10 10 10 9 9 10 10 10 10 10 9 9 10 10 10
19 17 15 15 16 16 16 18 17 17 17 18 18 18 20 21 21 21 20 20 19 19 18 17 16 15 14 13 12 12 12 12 11 11 10 10 9 9 10 10 10 10 9 9 9 9 10 10 10
19 14 15 16 16 16 17 18 18 17 17 19 19 18 20 21 21 20 20 19 19 18 18 17 16 15 13 12 12 12 11 11 11 11 10 10 9 9 9 10 10 10 9 9 9 9 9 9 9
19 14 16 15 16 16 18 19 19 19 19 20 19 18 20 21 20 20 20 19 18 18 17 17 16 15 14 12 12 11 11 11 11 11 10 10 10 10 9 10 10 10 9 9 9 9 9 9 9
19 15 15 16 16 17 18 19 20 19 19 19 20 20 20 20 20 20 19 19 19 18 17 17 16 15 14 13 12 11 11 11 11 11 10 10 10 10 10 10 10 10 9 9 9 9 9 9 9
18 14 15 16 16 17 18 18 19 19 18 18 19 20 19 19 19 19 19 19 19 19 18 17 16 15 14 13 12 11 11 11 11 11 11 11 11 11 11 10 10 10 9 9 9 9 9 9 9
17 15 15 16 18 18 17 18 18 17 15 18 19 19 18 18 18 18 18 19 19 19 18 18 17 16 15 14 13 12 11 11 11 11 11 11 11 11 11 11 10 10 10 10 9 9 9 9 9
16 15 16 17 18 18 17 18 17 17 18 19 19 18 18 18 18 19 19 19 18 18 18 18 17 16 15 14 13 12 12 11 11 11 11 11 11 11 11 11 10 10 10 9 9 9 9 9 9
16 16 17 17 17 17 16 16 16 18 19 18 18 19 19 19 19 19 18 18 17 18 17 17 17 16 15 14 13 13 12 12 11 11 11 10 11 11 10 10 10 10 9 9 9 9 8 8 8
16 16 16 17 17 16 15 15 15 18 18 19 19 19 18 18 18 18 18 18 18 18 17 17 16 16 15 14 14 13 13 12 11 11 10 10 10 10 10 10 10 9 9 9 8 8 8 8 8
16 15 14 15 16 16 15 15 14 18 18 18 18 18 18 18 18 18 18 18 18 18 17 17 16 15 15 14 14 13 13 12 11 11 10 10 10 10 9 9 9 9 9 8 8 8 8 8 8
15 14 14 15 15 15 16 15 15 17 17 17 17 17 17 17 17 18 18 18 18 18 17 17 16 16 15 14 14 13 12 12 11 11 10 10 9 9 9 9 9 9 8 8 8 8 7 8 8
13 13 14 14 15 15 15 14 14 16 16 15 16 16 17 17 17 18 18 18 18 18 18 17 16 16 15 14 13 12 12 11 11 11 10 10 9 9 9 9 9 8 8 7 7 7 7 7 7
15 14 14 14 14 14 13 12 13 15 14 14 15 16 16 17 17 17 18 18 18 18 18 17 16 16 15 14 13 12 12 12 11 11 10 10 9 9 9 8 8 8 7 7 7 7 7 7 7
15 14 13 12 13 13 12 11 12 13 13 14 15 15 16 16 16 17 17 18 18 17 17 16 16 15 14 14 13 12 12 12 11 11 10 10 10 9 9 8 8 8 7 7 7 6 6 6 6
13 13 12 12 13 13 11 11 12 12 13 14 14 15 16 16 17 17 17 17 17 16 16 16 15 15 14 13 12 12 11 11 11 10 10 10 10 9 9 8 8 8 7 7 6 6 6 6 5
13 13 13 13 13 12 12 13 13 13 13 13 14 14 15 16 16 16 16 16 16 16 15 15 15 14 13 13 12 11 11 11 11 10 10 10 9 9 8 8 8 7 7 7 6 6 6 5 5
13 13 13 13 13 11 12 12 13 13 13 13 13 14 15 15 15 15 15 15 15 14 14 14 14 13 13 12 12 11 11 11 10 10 9 9 9 8 8 8 7 7 7 6 6 6 6 5 5
13 13 13 13 12 11 10 11 11 12 13 12 13 14 14 14 14 14 14 14 14 13 13 13 13 13 12 12 12 11 11 11 10 10 10 9 9 8 8 8 7 7 7 6 6 6 5 5 5
13 12 10 9 9 11 12 11 12 11 12 12 12 13 14 14 14 14 13 13 13 13 13 12 12 12 12 11 11 11 11 10 10 10 10 9 9 9 8 8 7 7 7 6 6 6 5 5 4
13 12 12 13 12 12 11 10 11 12 11 11 12 13 14 14 13 13 13 13 12 12 12 12 12 11 11 11 10 10 10 10 9 9 9 9 9 8 8 7 7 7 7 6 6 5 5 4 4
12 12 13 13 12 11 11 10 11 11 10 11 13 14 14 13 13 13 12 12 12 11 11 11 11 11 10 10 10 9 9 9 9 8 8 8 8 8 7 7 7 7 6 6 6 5 5 4 4
12 11 11 10 10 10 10 10 10 12 10 10 11 13 13 13 13 12 12 11 11 11 11 10 10 10 10 9 9 9 8 8 8 8 7 7 7 7 7 7 6 6 6 6 5 5 5 4 4
12 10 9 10 11 11 11 10 11 12 12 11 10 12 13 13 12 12 11 11 11 10 10 10 9 9 9 8 8 8 7 7 7 7 7 6 6 6 6 6 6 6 6 5 5 4 4 4 3
11 11 10 9 9 10 10 11 11 11 11 10 11 12 13 12 12 11 11 11 10 10 9 9 9 8 8 7 7 7 7 6 6 6 6 6 6 6 6 6 5 5 5 5 4 4 4 3 3
11 11 9 11 10 8 9 10 12 10 10 11 12 12 12 12 11 11 10 10 10 9 9 8 8 7 7 6 6 6 6 6 6 6 6 6 5 5 5 5 5 5 4 4 4 3 3 3 2
Wind_Speed
5 3 3 4 6 5 2 5 3 3 4 3 3 5 7 7 7 5 2 10 7 12 25 25 25 24 22 20 18 17 15 14 12 11 10 9 9 9 8 8 8 9 9 10 10 10 11 11 12
2 2 5 6 5 1 5 5 5 6 4 1 2 2 2 6 5 4 2 9 10 17 25 23 26 24 22 20 19 17 16 15 13 12 11 10 9 9 8 8 8 8 8 9 9 9 10 10 11
1 4 5 5 4 5 5 4 6 3 0 1 1 2 3 5 4 4 5 10 11 17 23 22 26 24 22 21 19 18 17 15 14 13 11 11 10 9 8 8 7 7 7 7 8 8 8 9 9
3 5 6 5 3 5 5 6 3 3 1 2 2 4 5 3 2 2 6 11 12 14 21 21 26 24 23 21 20 19 18 16 15 13 12 11 10 9 8 8 7 7 7 6 6 6 7 7 8
4 5 4 1 4 5 5 6 4 5 3 2 3 4 7 2 3 4 9 12 13 12 20 19 25 24 23 21 20 19 18 17 16 14 13 12 11 10 9 8 7 7 6 6 5 5 5 5 6
5 5 4 3 6 6 6 4 2 4 3 2 5 3 8 1 2 4 8 10 9 11 17 18 24 24 23 22 21 20 19 18 16 15 14 13 12 11 10 9 8 7 6 5 5 4 4 4 4
5 5 4 4 4 6 5 3 4 4 4 6 6 5 7 2 1 6 7 8 8 12 14 16 19 23 23 23 22 21 20 19 17 16 15 14 13 12 11 10 9 8 6 5 4 3 3 2 2
5 5 3 3 4 7 4 2 3 5 7 3 8 8 8 2 4 8 7 6 7 8 10 14 15 18 20 22 22 22 21 20 18 17 16 15 14 13 12 11 10 9 7 6 5 4 3 2 1
4 4 3 5 6 6 3 2 3 1 3 3 6 7 3 4 7 8 6 4 6 9 8 12 13 14 17 19 21 22 21 21 20 18 18 16 14 12 10 11 11 10 9 8 7 6 5 3 2
5 3 8 6 6 5 4 4 4 4 5 5 7 6 3 5 7 9 10 12 13 15 13 10 12 12 14 17 19 19 19 19 19 17 17 16 13 12 10 10 12 12 10 10 9 8 6 4 3
4 7 6 6 6 4 4 5 3 4 9 10 11 9 4 6 8 10 11 11 15 12 12 13 12 13 13 13 15 15 15 16 17 17 16 14 13 12 11 9 10 10 8 7 6 4 3 3 4
3 6 5 5 3 4 5 4 4 8 12 6 6 5 5 9 12 15 16 14 10 9 13 13 12 12 13 14 13 14 13 14 14 16 17 15 12 11 11 11 10 9 7 6 6 5 5 5 7
4 5 4 6 7 6 6 7 6 10 10 7 6 6 8 11 13 12 11 9 9 11 11 12 11 12 12 12 11 13 14 14 15 16 18 18 14 11 12 11 12 11 10 9 8 8 8 8 9
3 5 7 8 6 3 5 5 4 10 4 5 6 7 8 10 11 9 10 11 12 13 12 11 13 13 13 11 10 11 14 15 16 17 19 20 18 15 13 12 12 13 14 14 13 12 11 10 10
2 6 9 5 2 2 2 7 6 6 6 9 9 9 9 7 6 9 11 12 12 11 10 12 13 11 12 12 12 13 14 16 15 16 19 21 20 18 16 13 13 16 17 16 13 12 10 8 9
3 4 5 6 3 2 1 8 7 4 6 8 8 9 9 8 6 6 7 9 9 9 9 11 12 13 13 11 11 12 13 15 15 17 18 20 21 21 18 14 14 17 17 15 10 7 5 6 7
3 2 4 8 4 2 1 9 8 4 5 5 6 8 9 9 10 9 7 5 5 7 8 9 11 12 13 10 9 10 11 13 15 16 17 19 21 21 19 16 16 17 14 13 10 7 6 8 9
4 4 4 6 5 3 6 11 12 7 3 2 3 6 8 9 10 10 10 8 3 0 4 7 9 9 9 7 6 5 7 8 12 15 18 19 20 22 21 17 16 15 9 9 8 9 8 7 8
2 4 7 8 5 4 7 10 12 8 1 2 3 5 8 8 8 10 10 10 9 6 2 3 5 6 6 5 6 6 8 6 6 11 16 19 21 21 21 16 13 13 11 13 12 9 9 8 4
3 5 7 7 3 2 7 9 7 3 1 2 2 4 6 8 11 12 12 12 11 8 5 1 2 5 6 6 5 4 3 4 6 8 14 19 21 21 21 17 12 11 11 12 11 10 7 6 7
5 6 6 6 6 3 6 7 4 3 3 2 3 3 5 6 8 10 11 11 11 11 8 4 1 2 5 5 4 2 2 1 2 5 7 13 19 20 21 20 17 12 12 13 15 14 12 11 8
6 6 6 3 2 5 4 4 5 2 2 1 1 3 4 6 7 7 9 10 10 9 8 6 4 2 2 5 4 6 6 6 7 5 6 7 14 19 21 21 19 14 13 15 16 15 14 12 11
7 2 2 1 2 3 2 2 8 2 5 6 4 1 2 4 6 7 7 7 7 8 8 7 6 5 2 2 5 5 7 8 6 4 6 7 8 14 18 19 17 15 14 16 16 14 15 14 15
5 5 5 5 4 2 3 4 6 4 7 6 5 4 1 2 4 5 5 6 7 8 8 8 8 6 4 1 2 5 7 8 7 8 8 7 6 7 11 15 14 14 14 16 17 16 15 16 16
4 4 4 5 4 4 1 3 8 6 5 7 8 8 5 2 2 3 5 6 7 8 8 7 8 6 5 3 1 3 6 7 8 9 8 8 6 6 9 10 11 13 14 14 14 14 16 17 17
5 6 5 3 4 6 3 6 7 5 5 4 6 7 5 3 1 1 2 4 5 6 7 7 7 6 6 5 4 4 4 4 5 7 7 7 7 8 9 8 10 12 13 14 14 14 16 15 17
6 4 5 6 2 4 7 8 8 1 4 3 5 5 5 4 2 1 2 3 4 5 5 5 6 6 6 6 6 6 5 5 6 7 6 6 7 8 8 8 9 11 12 13 13 13 15 15 16
4 8 6 4 2 4 7 6 5 4 3 3 5 6 5 3 2 0 1 2 3 4 4 5 5 5 6 6 5 5 6 6 6 6 7 8 8 8 9 9 9 10 11 11 12 12 14 15 15
5 4 5 4 4 5 4 7 6 7 6 7 7 6 5 4 3 1 1 2 3 4 5 5 6 6 6 7 6 7 7 7 7 6 8 8 8 9 9 9 9 10 10 10 10 12 13 15 16
6 7 8 5 5 5 4 8 4 5 4 5 4 3 2 1 1 1 1 3 4 5 6 6 6 6 6 6 6 7 7 7 7 8 9 9 9 9 9 10 10 11 11 10 11 13 13 14 16
Wind_Direction
345 8 56 54 52 48 280 258 237 235 239 229 173 168 176 183 180 231 288 158 159 159 174 185 179 179 179 179 176 173 170 168 164 159 153 146 139 131 124 116 106 99 91 84 78 75 74 71 71
357 55 54 60 85 52 276 256 243 230 241 120 111 126 198 243 227 249 232 177 164 163 173 184 180 180 181 181 179 176 175 174 170 166 162 157 151 144 135 126 118 109 100 93 85 80 77 76 75
68 51 82 78 122 187 245 254 248 261 234 165 212 231 225 240 229 240 204 166 157 164 174 185 180 181 183 183 182 180 179 178 176 174 170 166 161 155 148 139 130 121 112 104 95 87 81 80 79
90 53 59 84 206 221 233 270 272 274 283 207 202 275 266 248 242 236 152 157 155 166 175 186 182 183 185 186 186 184 184 183 182 180 178 175 171 167 159 151 144 135 127 117 106 94 85 83 84
60 79 70 27 259 259 253 271 247 215 224 234 176 261 275 261 57 117 148 162 164 165 175 187 184 186 188 189 189 189 189 188 188 186 185 184 181 177 171 166 159 153 145 134 122 108 94 85 86
58 69 95 249 271 279 272 259 186 205 239 238 187 243 264 225 131 155 159 163 164 164 174 186 188 189 191 192 193 193 193 193 193 192 192 191 189 186 182 180 176 172 165 154 143 128 110 94 89
105 106 169 218 268 289 275 180 186 206 242 233 189 210 273 286 147 142 148 145 154 167 175 188 196 193 195 196 197 197 197 198 198 198 198 198 197 194 193 192 190 187 182 175 168 156 143 122 100
119 109 163 227 247 270 271 239 230 202 243 214 165 198 248 333 97 110 115 131 154 171 183 192 201 196 195 197 199 200 201 202 202 203 202 203 203 203 202 200 199 199 198 195 194 194 195 194 182
86 85 231 233 223 257 262 272 276 219 246 240 214 223 251 105 117 114 121 152 178 192 196 195 203 200 194 194 199 202 204 205 206 206 205 206 205 205 208 200 205 210 211 211 213 216 222 223 238
92 173 233 224 210 234 268 250 268 294 281 273 268 258 123 146 162 169 181 190 196 201 200 198 200 198 193 193 198 202 203 205 206 205 204 203 197 198 202 203 211 219 221 222 225 228 232 217 209
156 201 232 242 229 241 269 260 229 222 262 245 253 268 194 186 201 208 209 205 206 202 200 201 200 197 193 192 192 195 197 198 200 200 198 193 189 192 196 201 212 225 231 227 231 240 204 192 208
195 241 230 253 224 224 236 252 242 215 238 251 249 259 207 209 214 216 217 218 207 201 205 202 196 197 197 194 191 190 192 194 195 196 194 185 181 186 189 195 203 212 217 214 215 217 220 222 229
227 265 258 254 269 255 255 248 254 256 269 300 290 269 244 234 232 231 233 231 211 214 208 202 196 199 197 195 193 192 194 195 196 194 195 192 186 188 193 199 205 210 214 215 218 224 230 236 242
271 285 295 285 273 255 249 271 221 274 336 341 338 312 282 256 247 243 237 234 222 219 210 199 200 200 196 200 200 199 197 196 196 197 197 198 196 194 195 201 207 213 216 219 221 225 230 239 245
317 321 317 296 286 272 265 310 239 275 347 349 344 338 330 307 273 250 242 238 232 225 209 200 203 198 200 204 204 202 197 196 199 202 202 202 202 200 200 204 211 217 218 220 223 229 234 243 246
48 15 318 304 331 326 342 287 275 334 2 341 341 345 348 346 333 297 273 253 239 225 209 202 204 201 204 206 205 204 199 201 205 204 204 206 207 205 203 209 218 218 215 214 214 216 221 234 238
18 324 284 303 324 345 295 267 276 341 343 325 338 349 356 359 2 350 332 296 254 223 208 197 200 200 203 203 203 205 202 207 209 207 208 210 211 210 209 218 222 213 210 213 220 213 212 231 240
251 260 275 277 304 326 272 269 290 315 292 284 347 2 7 14 1 352 0 4 12 156 191 193 198 199 188 186 192 202 212 216 215 213 216 213 214 213 215 224 222 209 207 217 217 225 217 226 238
207 243 269 267 283 297 273 283 297 314 359 108 56 23 18 10 354 11 20 25 34 39 59 192 196 191 171 172 189 205 224 222 222 224 223 219 218 216 217 227 222 212 219 226 221 220 226 233 215
218 262 274 289 303 286 301 297 304 347 87 132 102 47 26 13 12 15 21 29 30 27 20 3 212 194 188 188 176 184 192 214 219 224 228 226 223 221 222 226 228 219 224 229 223 213 218 223 189
220 217 243 272 325 5 336 331 354 16 35 58 52 41 32 30 21 15 18 22 24 22 10 6 325 201 195 179 151 124 107 347 246 230 232 230 228 227 227 228 229 225 222 230 229 221 219 230 213
252 233 214 241 332 308 19 310 284 300 317 294 5 22 27 26 28 27 23 21 19 11 11 21 30 64 165 166 172 190 209 232 237 230 234 232 227 229 230 232 231 230 228 231 232 226 223 225 231
211 109 149 187 183 304 333 210 285 275 233 237 231 235 25 36 40 37 29 25 21 16 22 24 39 47 63 161 190 203 231 246 259 256 252 247 235 232 233 233 233 234 233 233 234 230 224 224 231
134 88 70 63 84 303 229 179 278 232 219 218 212 210 198 64 47 38 30 32 25 21 24 25 35 35 33 66 199 221 243 259 273 271 267 264 253 243 237 236 236 237 237 237 236 235 230 229 230
114 92 7 349 5 264 235 205 252 254 242 216 198 197 195 155 74 34 32 28 21 17 14 15 25 21 15 18 318 256 254 259 262 270 271 273 271 261 250 238 239 240 240 241 239 237 236 234 232
171 146 162 233 260 290 295 238 255 282 294 240 185 171 175 175 155 58 42 32 13 8 7 7 10 2 355 352 332 304 279 267 266 268 268 269 269 268 264 247 244 244 244 244 241 240 240 239 236
136 166 156 134 167 270 285 291 304 330 36 91 135 156 189 199 196 177 35 25 6 358 355 350 348 341 337 336 329 324 315 294 286 287 278 274 273 277 275 265 257 253 250 248 245 245 243 241 239
145 141 110 129 186 271 292 282 254 245 196 166 179 201 219 220 218 247 9 353 341 335 330 336 335 324 321 329 328 322 317 309 299 298 295 290 286 282 282 278 268 263 258 254 250 250 250 246 244
131 136 128 127 162 180 268 275 228 211 201 194 208 223 229 223 218 247 294 319 325 329 330 329 331 329 326 327 325 324 318 315 312 302 294 291 289 289 284 280 276 272 267 261 256 253 251 250 250
175 174 152 165 214 189 206 267 274 207 201 194 212 235 236 201 185 220 303 328 332 329 325 324 322 322 317 318 319 316 312 313 311 303 297 294 290 288 284 282 278 275 271 265 259 261 258 253 252
Height
1539 1540 1542 1543 1547 1559 1559 1552 1548 1546 1545 1543 1543 1544 1545 1546 1549 1550 1542 1540 1541 1542 1544 1546 1548 1551 1553 1555 1557 1559 1560 1561 1562 1563 1564 1565 1565 1565 1566 1566 1566 1566 1566 1565 1565 1565 1565 1564 1564
1538 1540 1543 1544 1555 1566 1561 1550 1547 1544 1543 1543 1543 1543 1543 1542 1541 1541 1540 1540 1540 1542 1543 1545 1548 1550 1553 1555 1557 1558 1560 1561 1563 1564 1564 1565 1565 1566 1566 1566 1566 1566 1566 1566 1566 1566 1566 1565 1565
1538 1540 1543 1547 1557 1563 1555 1546 1544 1542 1542 1543 1543 1543 1543 1541 1540 1540 1540 1540 1540 1541 1543 1545 1547 1550 1552 1554 1556 1558 1560 1561 1563 1564 1565 1565 1566 1566 1566 1566 1566 1566 1567 1567 1567 1567 1567 1566 1566
1539 1542 1544 1551 1554 1553 1549 1543 1542 1542 1542 1542 1543 1543 1541 1540 1539 1539 1539 1539 1540 1541 1542 1545 1547 1549 1551 1554 1556 1558 1560 1561 1562 1564 1565 1565 1566 1566 1567 1567 1567 1567 1567 1567 1567 1567 1567 1567 1567
1539 1541 1548 1555 1552 1548 1544 1542 1541 1541 1541 1541 1542 1541 1540 1539 1538 1538 1538 1539 1539 1541 1542 1544 1546 1548 1551 1553 1555 1557 1559 1561 1562 1563 1564 1565 1566 1566 1567 1567 1567 1567 1567 1567 1568 1568 1568 1568 1568
1540 1542 1555 1558 1553 1547 1543 1541 1540 1540 1540 1540 1541 1540 1538 1537 1537 1537 1537 1538 1539 1540 1541 1543 1545 1547 1550 1552 1554 1556 1558 1560 1562 1563 1564 1565 1566 1566 1567 1567 1567 1568 1568 1568 1568 1568 1568 1568 1568
1541 1546 1553 1552 1552 1547 1542 1540 1539 1539 1539 1539 1539 1539 1536 1536 1535 1535 1535 1536 1537 1538 1540 1541 1543 1545 1548 1550 1552 1555 1557 1559 1560 1562 1563 1565 1565 1566 1567 1567 1567 1568 1568 1568 1568 1568 1568 1568 1568
1540 1545 1549 1552 1550 1546 1540 1539 1538 1538 1537 1538 1538 1536 1534 1534 1533 1533 1533 1534 1535 1536 1538 1540 1541 1543 1545 1547 1550 1552 1555 1557 1559 1561 1562 1563 1565 1565 1566 1567 1567 1567 1568 1568 1568 1568 1568 1568 1568
1540 1548 1553 1549 1547 1543 1538 1538 1537 1537 1536 1535 1534 1533 1532 1531 1530 1530 1531 1531 1532 1533 1535 1537 1538 1540 1542 1545 1547 1550 1552 1554 1557 1559 1560 1562 1563 1564 1565 1566 1566 1567 1567 1567 1568 1567 1567 1567 1567
1540 1549 1547 1542 1540 1538 1537 1536 1536 1535 1534 1532 1531 1530 1528 1527 1527 1527 1527 1528 1529 1530 1531 1533 1535 1537 1539 1542 1544 1547 1549 1552 1554 1556 1558 1559 1561 1562 1564 1564 1565 1566 1566 1567 1567 1567 1567 1567 1566
1539 1542 1539 1537 1536 1536 1535 1534 1533 1533 1531 1528 1527 1526 1525 1524 1523 1522 1523 1524 1526 1528 1529 1530 1532 1534 1536 1539 1541 1543 1546 1548 1551 1553 1555 1557 1558 1560 1561 1563 1563 1564 1565 1565 1566 1566 1566 1566 1565
1538 1536 1536 1534 1534 1534 1533 1531 1531 1529 1525 1525 1524 1523 1521 1520 1519 1519 1519 1521 1523 1524 1526 1528 1530 1531 1533 1536 1538 1540 1542 1545 1547 1550 1552 1554 1555 1557 1559 1560 1561 1562 1563 1563 1564 1564 1564 1564 1564
1537 1535 1533 1532 1532 1531 1530 1528 1528 1523 1522 1522 1521 1520 1518 1516 1515 1515 1516 1517 1519 1520 1523 1525 1527 1528 1530 1532 1534 1536 1539 1541 1544 1546 1548 1550 1552 1554 1556 1557 1558 1559 1560 1560 1561 1561 1561 1561 1561
1535 1534 1532 1529 1528 1528 1527 1525 1526 1519 1520 1519 1518 1516 1514 1513 1512 1511 1511 1512 1514 1516 1518 1521 1523 1525 1527 1529 1531 1533 1535 1538 1540 1542 1544 1547 1549 1550 1552 1553 1554 1555 1556 1557 1557 1557 1557 1557 1556
1534 1534 1531 1527 1526 1526 1526 1525 1522 1519 1518 1517 1516 1514 1511 1510 1508 1508 1508 1509 1510 1511 1513 1515 1518 1520 1522 1525 1527 1529 1531 1534 1536 1538 1541 1543 1544 1546 1548 1549 1550 1551 1552 1553 1553 1552 1552 1551 1551
1534 1538 1538 1529 1526 1526 1529 1530 1519 1518 1517 1516 1515 1513 1511 1509 1508 1507 1506 1506 1506 1507 1508 1511 1513 1515 1518 1520 1523 1525 1527 1530 1532 1534 1536 1538 1540 1541 1542 1543 1544 1546 1547 1547 1547 1547 1546 1545 1545
1540 1543 1539 1533 1527 1526 1527 1526 1517 1517 1516 1515 1514 1513 1511 1510 1508 1507 1506 1504 1504 1504 1505 1507 1509 1511 1513 1516 1519 1521 1523 1525 1527 1529 1531 1533 1535 1536 1537 1537 1538 1540 1540 1540 1541 1540 1540 1539 1538
1541 1540 1539 1537 1528 1528 1528 1524 1516 1515 1514 1514 1514 1513 1512 1511 1509 1508 1507 1505 1504 1504 1504 1505 1506 1508 1510 1512 1514 1516 1518 1520 1522 1524 1525 1527 1529 1530 1531 1531 1532 1532 1533 1533 1533 1533 1532 1532 1532
1535 1537 1540 1536 1529 1529 1527 1524 1517 1513 1513 1513 1514 1514 1513 1513 1512 1511 1509 1507 1506 1505 1505 1505 1505 1506 1507 1509 1510 1512 1514 1516 1517 1519 1520 1521 1522 1523 1523 1524 1524 1524 1524 1524 1525 1525 1524 1523 1524
1536 1538 1538 1533 1528 1529 1528 1524 1517 1514 1514 1514 1515 1515 1514 1514 1513 1512 1511 1509 1508 1507 1506 1506 1505 1506 1506 1507 1508 1509 1511 1512 1513 1514 1515 1516 1516 1516 1516 1516 1516 1516 1515 1515 1516 1516 1515 1514 1516
1535 1537 1534 1533 1530 1529 1529 1523 1518 1516 1515 1516 1516 1515 1515 1515 1514 1513 1512 1512 1510 1509 1508 1507 1507 1506 1506 1506 1506 1507 1507 1508 1509 1509 1509 1510 1510 1509 1509 1508 1508 1507 1507 1506 1506 1506 1505 1504 1505
1534 1528 1530 1531 1534 1538 1535 1538 1523 1519 1517 1516 1516 1516 1516 1516 1516 1515 1514 1514 1513 1512 1511 1509 1508 1507 1506 1506 1506 1506 1506 1505 1505 1505 1504 1504 1504 1503 1502 1501 1500 1499 1498 1496 1496 1496 1495 1495 1493
1526 1525 1528 1530 1534 1539 1538 1539 1529 1520 1519 1517 1516 1516 1516 1516 1516 1516 1516 1516 1515 1514 1513 1511 1510 1509 1508 1507 1506 1505 1504 1504 1503 1501 1500 1499 1498 1497 1495 1494 1492 1490 1489 1487 1487 1486 1485 1484 1483
1523 1528 1533 1539 1542 1541 1534 1540 1530 1522 1516 1514 1514 1515 1516 1516 1517 1517 1517 1517 1516 1515 1514 1513 1511 1510 1509 1507 1506 1505 1503 1502 1500 1498 1496 1495 1493 1491 1489 1487 1485 1483 1481 1479 1477 1476 1475 1473 1472
1524 1532 1541 1537 1542 1539 1534 1538 1528 1513 1511 1511 1511 1513 1515 1516 1516 1517 1517 1517 1516 1516 1515 1513 1512 1510 1509 1507 1505 1503 1501 1499 1497 1494 1492 1490 1487 1485 1483 1481 1478 1475 1473 1471 1469 1467 1465 1463 1461
1524 1528 1539 1541 1545 1543 1535 1535 1520 1510 1508 1507 1509 1511 1513 1515 1516 1516 1516 1516 1516 1515 1514 1513 1511 1510 1508 1505 1503 1501 1498 1496 1493 1491 1488 1485 1482 1479 1477 1474 1471 1468 1466 1463 1460 1457 1455 1453 1451
1524 1528 1530 1541 1543 1546 1538 1530 1517 1508 1508 1507 1508 1510 1512 1513 1514 1515 1516 1516 1515 1514 1513 1512 1510 1508 1505 1503 1500 1497 1495 1492 1489 1486 1483 1480 1477 1473 1470 1467 1464 1461 1458 1455 1452 1448 1445 1443 1440
1519 1526 1536 1540 1542 1543 1538 1532 1522 1510 1509 1509 1509 1509 1511 1512 1513 1514 1514 1514 1514 1513 1512 1510 1508 1505 1502 1499 1496 1493 1490 1487 1484 1481 1478 1474 1471 1467 1464 1461 1457 1454 1450 1447 1443 1439 1436 1432 1429
1523 1525 1529 1538 1540 1544 1543 1529 1510 1508 1507 1507 1507 1508 1509 1510 1511 1512 1512 1512 1512 1511 1509 1507 1504 1501 1498 1495 1492 1489 1486 1483 1479 1476 1473 1469 1465 1461 1457 1453 1449 1445 1442 1438 1433 1429 1426 1422 1418
1516 1520 1527 1532 1535 1542 1542 1528 1503 1504 1504 1505 1506 1507 1508 1508 1509 1510 1510 1510 1510 1508 1506 1504 1501 1497 1494 1491 1488 1485 1481 1478 1475 1471 1467 1463 1459 1454 1450 1445 1441 1436 1432 1428 1424 1419 1415 1411 1407